Omaha, IA

5:52 PM CDT on September 26, 2017 (GMT -0500)
Eppley Airfield

Weather History for KOMA - October, 2013

Change the Weather History Date:

Tuesday, October 29, 2013

  Actual Average Record
Temperature  
Mean Temperature 49 °F 48 °F  
Max Temperature 54 °F 59 °F 90 °F (1937)
Min Temperature 43 °F 37 °F 12 °F (1925)
Degree Days  
Heating Degree Days 16 17  
Month to date heating degree days 356 346  
Since 1 July heating degree days 378 449  
Cooling Degree Days 0 0  
Month to date cooling degree days 21 12  
Year to date cooling degree days 1294 1109  
Moisture  
Dew Point 45 °F    
Average Humidity 84    
Maximum Humidity 96    
Minimum Humidity 71    
Precipitation  
Precipitation 0.10 in 0.06 in 2.31 in (1872)
Month to date precipitation 3.62 2.03  
Year to date precipitation 27.58 27.82  
Snow  
Snow 0.00 in 0.10 in - ()
Month to date snowfall 0.0 0.3  
Since 1 July snowfall 0.0 0.3  
Snow Depth 0.00 in    
Sea Level Pressure  
Sea Level Pressure 30.06 in    
Wind  
Wind Speed 6 mph (ESE)    
Max Wind Speed 15 mph    
Max Gust Speed 21 mph    
Visibility 5 miles    
Events Rain    
T = Trace of Precipitation, MM = Missing Value Source: NWS Daily Summary

Daily Weather History Graph

Daily Weather History Graph

Search for Another Location

Airport or City:

Trip Planner

Search our weather history database for the weather conditions in past years. The results will help you decide how hot, cold, wet, or windy it might be!

Date:

Astronomy

Oct. 29, 2013 Rise Set
Actual Time 7:51 AM CDT 6:22 PM CDT
Civil Twilight 7:23 AM CDT 6:50 PM CDT
Nautical Twilight 6:50 AM CDT 7:23 PM CDT
Astronomical Twilight 6:18 AM CDT 7:55 PM CDT
Moon 2:39 AM CDT (10/29) 3:39 PM CDT (10/29)
Length of Visible Light 11h 27m
Length of Day
10h 30m
Waning Crescent, 25% of the Moon is Illuminated
Oct 29
Waning Crescent
Nov 3
New
Nov 9
First Quarter
Nov 17
Full
Nov 25
Last Quarter

Hourly Weather History & Observations

Time (CDT) Temp. Windchill Dew Point Humidity Pressure Visibility Wind Dir Wind Speed Gust Speed Precip Events Conditions
12:52 AM 46.0 °F 40.6 °F 37.9 °F 73% 30.20 in 10.0 mi ENE 11.5 mph - 0.00 in   Overcast
1:52 AM 44.1 °F 42.5 °F 37.9 °F 79% 30.17 in 10.0 mi Variable 3.5 mph 18.4 mph 0.02 in Rain Light Rain
2:52 AM 44.1 °F 39.0 °F 37.9 °F 79% 30.15 in 10.0 mi East 9.2 mph - 0.02 in Rain Light Rain
3:52 AM 43.0 °F 36.8 °F 37.9 °F 82% 30.14 in 10.0 mi East 11.5 mph 17.3 mph 0.01 in Rain Light Rain
4:52 AM 44.1 °F 41.5 °F 37.9 °F 79% 30.14 in 10.0 mi East 4.6 mph - 0.02 in Rain Light Rain
5:52 AM 44.1 °F 41.5 °F 39.0 °F 82% 30.14 in 10.0 mi Variable 4.6 mph - 0.00 in Rain Light Rain
6:52 AM 44.1 °F 39.0 °F 39.0 °F 82% 30.13 in 10.0 mi East 9.2 mph - 0.00 in   Overcast
7:52 AM 44.1 °F 41.5 °F 39.0 °F 82% 30.12 in 10.0 mi East 4.6 mph - 0.00 in   Overcast
8:52 AM 44.1 °F 37.7 °F 39.9 °F 85% 30.11 in 10.0 mi SE 12.7 mph - 0.01 in   Overcast
9:52 AM 45.0 °F 41.8 °F 41.0 °F 86% 30.12 in 4.0 mi ESE 5.8 mph - 0.00 in Rain Light Rain
10:52 AM 46.0 °F 41.0 °F 42.1 °F 86% 30.09 in 3.0 mi East 10.4 mph - 0.00 in Rain Light Rain
11:02 AM 46.4 °F 41.9 °F 42.8 °F 87% 30.08 in 3.0 mi ESE 9.2 mph - 0.00 in Rain Light Rain
11:26 AM 46.4 °F 42.4 °F 44.6 °F 93% 30.07 in 3.0 mi East 8.1 mph - 0.00 in   Overcast
11:36 AM 46.4 °F 43.5 °F 44.6 °F 93% 30.07 in 3.0 mi SE 5.8 mph - 0.00 in   Overcast
11:52 AM 48.0 °F - 45.0 °F 89% 30.08 in 3.0 mi SE 6.9 mph - 0.00 in   Overcast
12:52 PM 48.9 °F - 46.0 °F 90% 30.06 in 4.0 mi ESE 9.2 mph - N/A   Overcast
1:37 PM 50.0 °F - 46.4 °F 87% 30.03 in 2.5 mi East 5.8 mph - 0.00 in   Light Drizzle
1:52 PM 50.0 °F - 46.9 °F 89% 30.03 in 1.5 mi East 3.5 mph - 0.00 in   Light Drizzle
2:52 PM 51.1 °F - 48.0 °F 89% 30.00 in 2.0 mi Calm Calm - 0.01 in   Light Drizzle
2:59 PM 51.8 °F - 48.2 °F 88% 29.99 in 1.5 mi ENE 3.5 mph - 0.00 in   Light Drizzle
3:52 PM 52.0 °F - 50.0 °F 93% 29.98 in 1.0 mi East 6.9 mph - 0.01 in   Light Drizzle
4:52 PM 53.1 °F - 50.0 °F 89% 29.97 in 1.2 mi East 5.8 mph - 0.00 in   Light Drizzle
5:52 PM 53.1 °F - 51.1 °F 93% 29.97 in 1.5 mi East 5.8 mph - 0.00 in   Light Drizzle
6:14 PM 53.6 °F - 50.0 °F 88% 29.96 in 2.0 mi East 5.8 mph - 0.00 in   Light Drizzle
6:52 PM 53.1 °F - 51.1 °F 93% 29.97 in 1.5 mi East 5.8 mph - 0.00 in   Light Drizzle
7:52 PM 53.1 °F - 51.1 °F 93% 29.97 in 1.5 mi ESE 5.8 mph - 0.00 in   Light Drizzle
8:52 PM 53.1 °F - 51.1 °F 93% 29.97 in 1.5 mi ESE 4.6 mph - 0.00 in   Light Drizzle
9:52 PM 53.1 °F - 52.0 °F 96% 29.98 in 1.5 mi Calm Calm - 0.00 in   Light Drizzle
10:52 PM 54.0 °F - 52.0 °F 93% 29.98 in 1.5 mi ESE 3.5 mph - 0.00 in   Light Drizzle
11:52 PM 54.0 °F - 53.1 °F 97% 29.97 in 1.8 mi ESE 3.5 mph - 0.00 in   Overcast